Mercury, NV

6:34 AM PST on November 21, 2017 (GMT -0800)
Mercury

Weather History for KDRA - October, 2012

Change the Weather History Date:

Thursday, October 4, 2012

  Actual Average Record
Temperature  
Mean Temperature 74 °F 68 °F  
Max Temperature 89 °F 82 °F 96 °F (1980)
Min Temperature 59 °F 54 °F 42 °F (2016)
Degree Days  
Heating Degree Days 0    
Cooling Degree Days 9    
Growing Degree Days 24 (Base 50)    
Moisture  
Dew Point 28 °F    
Average Humidity 18    
Maximum Humidity 30    
Minimum Humidity 5    
Precipitation  
Precipitation 0.00 in 0.01 in 0.55 in (2015)
Month to date precipitation 0.04  
Year to date precipitation 4.61  
Sea Level Pressure  
Sea Level Pressure 29.89 in    
Wind  
Wind Speed 7 mph (WNW)    
Max Wind Speed 17 mph    
Max Gust Speed 23 mph    
Visibility 10 miles    
Events      
T = Trace of Precipitation, MM = Missing Value Source: NWS Daily Summary

Daily Weather History Graph

Daily Weather History Graph

Search for Another Location

Airport or City:

Trip Planner

Search our weather history database for the weather conditions in past years. The results will help you decide how hot, cold, wet, or windy it might be!

Date:

Astronomy

Oct. 04, 2012 Rise Set
Actual Time 6:42 AM PDT 6:22 PM PDT
Civil Twilight 6:16 AM PDT 6:48 PM PDT
Nautical Twilight 5:46 AM PDT 7:17 PM PDT
Astronomical Twilight 5:16 AM PDT 7:47 PM PDT
Moon 9:08 PM PDT (10/4) 10:55 AM PDT (10/4)
Length of Visible Light 12h 31m
Length of Day
11h 39m
Waning Gibbous, 81% of the Moon is Illuminated
Oct 4
Waning Gibbous
Oct 8
Last Quarter
Oct 15
New
Oct 21
First Quarter
Oct 29
Full

Hourly Weather History & Observations

Time (PDT) Temp. Dew Point Humidity Pressure Visibility Wind Dir Wind Speed Gust Speed Precip Events Conditions
12:52 AM 70.0 °F 25.0 °F 18% 29.85 in 10.0 mi North 5.8 mph - N/A   Clear
1:52 AM 70.0 °F 26.1 °F 19% 29.85 in 10.0 mi NNE 5.8 mph - N/A   Clear
2:52 AM 68.0 °F 26.1 °F 21% 29.85 in 10.0 mi North 6.9 mph - N/A   Clear
3:52 AM 66.9 °F 28.0 °F 23% 29.86 in 10.0 mi Calm Calm - N/A   Clear
4:52 AM 64.0 °F 28.0 °F 26% 29.88 in 10.0 mi NNE 8.1 mph - N/A   Clear
5:52 AM 61.0 °F 28.9 °F 30% 29.90 in 10.0 mi Calm Calm - N/A   Clear
6:52 AM 61.0 °F 28.9 °F 30% 29.92 in 10.0 mi NE 3.5 mph - N/A   Clear
7:52 AM 62.1 °F 28.9 °F 29% 29.94 in 10.0 mi Calm Calm - N/A   Clear
8:52 AM 72.0 °F 32.0 °F 23% 29.95 in 10.0 mi Calm Calm - N/A   Clear
9:52 AM 77.0 °F 32.0 °F 19% 29.95 in 10.0 mi WSW 5.8 mph - N/A   Clear
10:52 AM 79.0 °F 32.0 °F 18% 29.94 in 10.0 mi WSW 9.2 mph - N/A   Clear
11:52 AM 82.0 °F 32.0 °F 16% 29.94 in 10.0 mi WSW 9.2 mph 18.4 mph N/A   Clear
12:52 PM 84.0 °F 30.9 °F 15% 29.92 in 10.0 mi Variable 6.9 mph - N/A   Clear
1:52 PM 87.1 °F 30.0 °F 13% 29.88 in 10.0 mi SSW 12.7 mph 20.7 mph N/A   Clear
2:52 PM 88.0 °F 28.9 °F 12% 29.87 in 10.0 mi SW 15.0 mph 21.9 mph N/A   Clear
3:52 PM 88.0 °F 27.0 °F 11% 29.86 in 10.0 mi SW 17.3 mph 23.0 mph N/A   Clear
4:52 PM 87.1 °F 27.0 °F 11% 29.85 in 10.0 mi SW 17.3 mph 21.9 mph N/A   Clear
5:52 PM 84.0 °F 26.1 °F 12% 29.85 in 10.0 mi SSW 16.1 mph 21.9 mph N/A   Clear
6:52 PM 80.1 °F 27.0 °F 14% 29.86 in 10.0 mi SW 10.4 mph - N/A   Clear
7:52 PM 78.1 °F 28.0 °F 16% 29.87 in 10.0 mi WSW 9.2 mph - N/A   Clear
8:52 PM 75.0 °F 28.0 °F 18% 29.87 in 10.0 mi NNW 4.6 mph - N/A   Clear
9:52 PM 72.0 °F 28.0 °F 20% 29.88 in 10.0 mi NNE 9.2 mph - N/A   Clear
10:52 PM 71.1 °F 27.0 °F 19% 29.90 in 10.0 mi NNE 6.9 mph - N/A   Clear
11:52 PM 64.0 °F 26.1 °F 24% 29.91 in 10.0 mi ENE 5.8 mph - N/A   Clear